Regional Weather Roundup
Issued by NWS

Home | Current Version | Previous Version | Graphics & Text | Print | Product List | Glossary On
Versions: 1 2 3 4 5 6 7 8 9 10 11 12 13 14 15 16 17 18 19 20 21 22 23 24 25 26 27 28
000
ASUS45 KBOU 050807
RWRCO

WEATHER ROUNDUP FOR COLORADO
NATIONAL WEATHER SERVICE DENVER/BOULDER CO
100 AM MST MON DEC 05 2016

NOTE: "FAIR" INDICATES FEW OR NO CLOUDS BELOW 12000 FEET WITH NO
SIGNIFICANT WEATHER AND/OR OBSTRUCTIONS TO VISIBILITY.

COZ001>005-013-030-031-050900-
...NORTHWEST COLORADO...

CITY           SKY/WX    TMP DP  RH WIND       PRES   REMARKS
CRAIG          CLOUDY    27  18  69 SE6       29.78F WCI  20
HAYDEN         CLOUDY    27  16  63 SE6       29.77F WCI  20
MEEKER         CLOUDY    37  17  44 W9        29.81R
MOUNT WERNER   NOT AVBL
STEAMBOAT SPGS CLOUDY    23  18  80 CALM      29.76F
WALDEN           N/A     30  19  64 SW17      29.75S WCI  18
$$

COZ006>008-011-050900-
...WEST CENTRAL VALLEYS...

CITY           SKY/WX    TMP DP  RH WIND       PRES   REMARKS
GRAND JUNCTION FAIR      24  19  81 CALM      29.91F
MONTROSE       FAIR      26  18  71 SE7       29.91F WCI  18
EAGLE          CLOUDY    27  18  69 E3        29.84F
RIFLE          CLOUDY    28  22  78 NE5       29.89F WCI  23
DELTA          FAIR      32  19  59 NE5       29.92F WCI  27
NUCLA          FAIR      25  14  63 SE6       29.97F WCI  18
$$

COZ017>023-064>068-050900-
...SOUTHWEST COLORADO...

CITY           SKY/WX    TMP DP  RH WIND       PRES   REMARKS
DURANGO        FAIR      20  16  84 N3        30.00F
CORTEZ         FAIR      20  16  84 NE3       30.00F
PAGOSA SPRINGS FAIR      18  16  93 CALM      30.01F
TELLURIDE      NOT AVBL
WOLF CREEK PAS FAIR      14  10  85 S9G16     30.04S WCI   2
$$

COZ009-010-012-014-032>034-037-058>063-050900-
...CENTRAL COLORADO...

CITY           SKY/WX    TMP DP  RH WIND       PRES   REMARKS
ASPEN          CLOUDY    28  21  75 SE8       29.84F WCI  20
BUENA VISTA    FAIR      39  11  31 N9G36     29.83S
COPPER MTN     CLOUDY    27  12  54 MISG      29.90F
BERTHOUD PASS  CLOUDY    18   5  57 W25G39    29.83F WCI  -1
COTTONWOOD PAS FAIR      36  10  35 W26G48    29.82F
GUNNISON       FAIR       7   4  87 CALM      29.97F
KREMMLING      FAIR      41  18  38 SW22      29.78F
LEADVILLE      FAIR      26  12  55 NE3       29.85F
MONARCH PASS   FAIR      19  10  68 W37G43    30.01F WCI  -1
SALIDA         FAIR      37  10  33 SW18      29.90F
SUNLIGHT       CLOUDY    21  16  79 SW21G36   29.88F WCI   6
WILKERSON PASS FAIR      27  12  54 SW17G28   29.83F WCI  14
$$

COZ069>075-050900-
...SAN LUIS VALLEY/SANGRE DE CRISTO MOUNTAINS...

CITY           SKY/WX    TMP DP  RH WIND       PRES   REMARKS
ALAMOSA        FAIR       4   0  83 NW8       29.95F WCI  -9
LA VETA PASS   FAIR      27  12  54 NE33G53   29.85F WCI   9
SAGUACHE       FAIR      12   3  67 CALM      29.95F
$$

COZ035-036-038>040-050900-
...NORTHERN COLORADO FRONT RANGE...

CITY           SKY/WX    TMP DP  RH WIND       PRES   REMARKS
DENVER INTL AP FAIR      30  14  51 CALM      29.65F
DMNS CITY PARK   N/A     34  15  45 SW6G16    29.65S WCI  28
AURORA         PTCLDY    37  16  42 S9        29.65F
FRONT RANGE AP FAIR      34  18  51 S6        29.66F WCI  29
ERIE MUNI ARPT FAIR      45  15  29 CALM      29.64F
BOULDER MUN AP FAIR      50  19  29 S10G21    29.61F
CENTENNIAL     MOCLDY    35  16  45 S7        29.66F WCI  29
BROOMFIELD     FAIR      37  14  38 E6        29.65F
FORT COLLINS   FAIR      39  18  41 E9        29.64F
LONGMONT       FAIR      40  16  39 E8        29.64F
$$

COZ041-046-047-076>085-087-088-050900-
...PIKES PEAK/PALMER DIVIDE AND SOUTHERN FOOTHILLS...

CITY           SKY/WX    TMP DP  RH WIND       PRES   REMARKS
COLO. SPRINGS  FAIR      34  10  37 E7        29.73F WCI  28
A. F. ACADEMY  FAIR      26  11  54 CALM      29.72F
SCHRIEVER AFB  NOT AVBL
ELLICOTT       FAIR     N/A N/A N/A S3        29.72F
FALCON         FAIR      40  12  32 W7        29.74F
FORT CARSON    FAIR      29  11  46 NW6       29.70F WCI  23
LIMON          FAIR      16  11  80 N7        29.69F WCI   6
MONUMENT HILL  FAIR      32  16  51 S7        29.74S WCI  26
TRINIDAD       FAIR      38  12  34 W13G18    29.78F
$$

COZ042>045-048>051-090-091-050900-
...NORTHEAST COLORADO...

CITY           SKY/WX    TMP DP  RH WIND       PRES   REMARKS
GREELEY ARPT   FAIR      24  14  65 E5        29.65F WCI  18
AKRON          FAIR      38  13  35 SW10      29.66F
BURLINGTON     FAIR      33  15  47 SW10      29.68F WCI  25
WRAY           NOT AVBL
STERLING       FAIR      30  18  59 CALM      29.67R
HOLYOKE        FAIR      34  18  51 SW3       29.66F
FORT MORGAN    FAIR      30  12  47 W9        29.66F WCI  21
$$

COZ086-089-092>099-050900-
...SOUTHEAST COLORADO...

CITY           SKY/WX    TMP DP  RH WIND       PRES   REMARKS
PUEBLO         FAIR      29  17  61 W12       29.72F WCI  19
LA JUNTA       FAIR      28  14  55 NW6       29.73F WCI  22
LAMAR          MIX PCPN  18  11  74 CALM      29.71F
SPRINGFIELD      N/A     27  18  69 SW13      29.74F WCI  16
$$




USA.gov is the U.S. government's official web portal to all federal, state and local government web resources and services.